Regional Weather Roundup
Issued by NWS Upton, NY

Current Version | Previous Version | Text Only | Print | Product List | Glossary On
Versions: 1 2 3 4 5 6 7 8 9 10 11 12 13 14 15 16 17 18 19 20 21 22 23 24 25 26 27 28 29 30 31 32 33 34 35 36 37 38 39 40 41 42 43 44 45 46 47 48 49 50
676
ASUS41 KOKX 240508
RWROKX

REGIONAL WEATHER ROUNDUP
NATIONAL WEATHER SERVICE NEW YORK NY
1200 AM EST FRI FEB 24 2017

NOTE: "FAIR" INDICATES FEW OR NO CLOUDS BELOW 12,000 FEET WITH NO
SIGNIFICANT WEATHER AND/OR OBSTRUCTIONS TO VISIBILITY.

NYZ071-072-176-178-NJZ106-104-240600-
NEW YORK CITY METRO AREA

CITY           SKY/WX    TMP DP  RH WIND       PRES   REMARKS
Central Park   PTCLDY    63  51  65 VRB6      29.92R
Wall St Helipt NOT AVBL
LaGuardia APRT PTCLDY    55  47  74 S8        29.90R
Kennedy INTL   PTCLDY    48  47  96 CALM      29.92R
Breezy Point     N/A     46 N/A N/A SW1         N/A
Newark/Liberty MOCLDY    55  49  80 SW7       29.90R
Teterboro      CLOUDY    56  50  80 CALM      29.89R
$$

NYZ177-179-078>081-240600-
LONG ISLAND NEW YORK

CITY           SKY/WX    TMP DP  RH WIND       PRES   REMARKS
Jones Beach      N/A     46 N/A N/A S5          N/A
Matinecock PT  NOT AVBL
Farmingdale    CLEAR     46  44  93 S3        29.92S
MacArthur/ISP  PTCLDY    48  46  93 S7        29.92S
Shirley        MOCLDY    49  47  93 S7        29.94S
Westhampton    CLOUDY    50  46  86 SW9       29.95R
Southampton    NOT AVBL
Bridgehampton  NOT AVBL
East Hampton   CLOUDY    49  46  90 SW9       29.94R
Montauk        NOT AVBL
$$

NYZ052-065-067-240600-
HUDSON VALLEY

CITY           SKY/WX    TMP DP  RH WIND       PRES   REMARKS
White Plains   CLOUDY    49  46  90 CALM      29.90R
Newburgh       MOCLDY    55  54  94 CALM      29.90R
Montgomery     CLOUDY    52  51  97 W3        29.87S
Poughkeepsie   LGT RAIN  50  48  93 CALM      29.87F
Albany         PTCLDY    47  43  86 CALM      29.87R
$$

NJZ001-105-106-008-010-013-015-019>022-104-240600-
NEW JERSEY

CITY           SKY/WX    TMP DP  RH WIND       PRES   REMARKS
Newark/Liberty MOCLDY    55  49  80 SW7       29.90R
Teterboro      CLOUDY    56  50  80 CALM      29.89R
Caldwell       CLOUDY    51  48  89 CALM      29.90R
Somerville     MOCLDY    49  45  86 CALM      29.89R
Linden         NOT AVBL
Sussex         CLOUDY    50  49  96 CALM      29.90R
Andover          N/A     50  47  89 CALM      29.90R
Trenton        CLEAR     59  51  75 SW5       29.91R
Millville      CLEAR     56  52  86 VRB3      29.92S
Atlantic City  CLEAR     56  50  80 S12       29.93S
Wrightstown    PTCLDY    57  51  80 SW6       29.89R
Toms River     CLEAR     57  51  80 SW7       29.93R
Belmar         MOCLDY    58  51  78 S8        29.92S
$$

PAZ047>061-062-071-240600-
EASTERN PENNSYLVANIA

CITY           SKY/WX    TMP DP  RH WIND       PRES   REMARKS
Philadelphia   PTCLDY    57  50  77 SW5       29.92R
Allentown      MOCLDY    60  51  72 S5        29.89R
Scranton       CLOUDY    56  54  93 NE3       29.86F FOG
$$

CTZ002-004>006-009-010-012-RIZ004-006-007-MAZ004-011-015-240600-
SOUTHERN NEW ENGLAND
 IN CT

CITY           SKY/WX    TMP DP  RH WIND       PRES   REMARKS
Bradley INTL   PTCLDY    47  47 100 S7        29.89R
Hartford       CLEAR     50  48  93 S5        29.89S
Danbury        CLOUDY    46  44  93 CALM      29.91R
Wtrbury/Oxford MOCLDY    54  46  76 S3        29.92R
Bridgeport     CLOUDY    45  42  89 CALM      29.91R FOG
Meriden        PTCLDY    47  44  90 CALM      29.91S FOG
New Haven      MOCLDY    42  41  96 CALM      29.91R FOG
Chester        MOCLDY    52  48  87 SW6       29.92R
Groton         PTCLDY    42  41  96 CALM      29.94R FOG
Wilimantic     CLEAR     43  42  97 NE3       29.91R

 IN RI

CITY           SKY/WX    TMP DP  RH WIND       PRES   REMARKS
Providence     CLEAR     47  44  90 S6        29.91R
Block Island   CLEAR     46  45  96 SW15      29.94R
Westerly       CLEAR     47  42  83 S5        29.94R
 IN MA

CITY           SKY/WX    TMP DP  RH WIND       PRES   REMARKS
Boston         CLOUDY    53  50  89 SW13      29.88R
Worcester      CLOUDY    51  47  86 SW13      29.88R
Westfield      CLEAR     40  39  97 S3        29.87R
Provincetown   PTCLDY    44  43  96 SW13      29.90R
Nantucket      CLOUDY    46  44  93 SW10      29.96R FOG
$$

ANZ330-335-338-340-345-350-353-355-240600-
COASTAL MARINE OBSERVATIONS


STATION/POSITION TIME  SKY/WX   TEMP    WIND        PRES    VSBY  WAVE
                                AIR SEA DIR/SP/G                  HT/PER
                 (UTC)          (F)     (DEG/KT/KT) (MB)    (MI)  (FT/S)
NY HARB ENTRANCE 0350            47 44  200/ 14/ 16 1012.4          4/11
20 S FIRE ISLAND 0450            47 43  200/ 12/ 14 1013.3          4/10
GREAT SOUTH BAY  NOT AVBL
23 SSW MONTAUK P 0350            49 46              1013.7          4/12
15 E BARNEGAT LI 0430               43                N/A           4/12
HUDSON CANYON    0350               48              1014.1          4/12
KINGS POINT      0436            51 39              1012.4
EXECUTION ROCKS  NOT AVBL
CENTRAL LI SOUND 0430            48     170/  4/  6   N/A           1
EASTERN LI SOUND NOT AVBL
ROBBINS REEF     0436            56     170/  9/ 10 1012.5
$$


>>>>>>>>>>>>>>>>>>>>>>>>>>>> KEY <<<<<<<<<<<<<<<<<<<<<<<<<<<
>                                                          <
>     SKY/WX - Sky Condition/Present Weather               <
>     TMP    - Temperature in Fahrenheit                   <
>     DP     - Dew Point in Fahrenheit                     <
>     RH     - Relative Humidity in Percent                <
>     WIND   - Direction (from) and Speed in MPH           <
>     PRES   - Mean Sea Level Pressure (inches of Hg)      <
>     WCI    - Wind Chill Index                            <
>     VSB    - VISIBILITY IN MILES                         <
>     HX     - HEAT INDEX                                  <
>     TC     - TEMPERATURE IN CELSIUS                      <
>     VRB    - VARIABLE WIND DIRECTION                     <
>                                                          <
>>>>>>>>>>>>>>>>>>>>>>>>>>>> KEY <<<<<<<<<<<<<<<<<<<<<<<<<<<




USA.gov is the U.S. government's official web portal to all federal, state and local government web resources and services.